This is the latest recevied weather packets stored in our database for station/object OK3MS-5. If no packets are shown the sender has not sent any weather packets the latest 10 day(s).
| Time | Temp. | Humidity | Pressure | Rain* | Wind** | Luminosity | Snow |
|---|---|---|---|---|---|---|---|
| 1787520910 | 12.22° C | 84% | 1021.5 hPa | 0 mm | - | 0 W/m² | - |
| 1787520605 | 12.22° C | 87% | 1021.6 hPa | 0 mm | - | 0 W/m² | - |
| 1787520304 | 12.22° C | 85% | 1021.6 hPa | 0 mm | - | 0 W/m² | - |
| 1787520010 | 12.22° C | 85% | 1021.6 hPa | 0 mm | - | 0 W/m² | - |
| 1787519703 | 12.22° C | 87% | 1021.6 hPa | 0 mm | - | 0 W/m² | - |
| 1787519403 | 12.22° C | 85% | 1021.6 hPa | 0 mm | - | 0 W/m² | - |
| 1787519108 | 12.22° C | 85% | 1021.8 hPa | 0 mm | - | 0 W/m² | - |
| 1787518807 | 12.22° C | 83% | 1021.5 hPa | 0 mm | - | 0 W/m² | - |
| 1787518505 | 12.22° C | 85% | 1021.5 hPa | 0 mm | - | 0 W/m² | - |
| 1787518204 | 12.22° C | 85% | 1021.4 hPa | 0 mm | - | 0 W/m² | - |
| 1787517909 | 12.22° C | 85% | 1021.4 hPa | 0 mm | - | 0 W/m² | - |
| 1787517603 | 12.22° C | 85% | 1021.4 hPa | 0 mm | - | 0 W/m² | - |
| 1787517309 | 12.22° C | 86% | 1021.4 hPa | 0 mm | - | 0 W/m² | - |
| 1787517005 | 12.22° C | 84% | 1021.2 hPa | 0 mm | - | 0 W/m² | - |
| 1787516403 | 12.78° C | 83% | 1021.3 hPa | 0 mm | - | 0 W/m² | - |
| 1787516104 | 12.78° C | 85% | 1021.3 hPa | 0 mm | - | 0 W/m² | - |
| 1787515803 | 12.78° C | 82% | 1021.2 hPa | 0 mm | - | 0 W/m² | - |
| 1787515505 | 12.78° C | 83% | 1021.2 hPa | 0 mm | - | 0 W/m² | - |
| 1787515204 | 12.78° C | 84% | 1021.2 hPa | 0 mm | - | 0 W/m² | - |
| 1787514909 | 12.78° C | 83% | 1021.3 hPa | 0 mm | - | 0 W/m² | - |
| 1787514603 | 12.78° C | 83% | 1021.2 hPa | 0 mm | - | 0 W/m² | - |
| 1787514304 | 13.33° C | 83% | 1021.1 hPa | 0 mm | - | 0 W/m² | - |
| 1787514003 | 13.33° C | 81% | 1021.1 hPa | 0 mm | - | 0 W/m² | - |
| 1787513704 | 13.33° C | 82% | 1021.2 hPa | 0 mm | - | 0 W/m² | - |
| 1787513409 | 13.33° C | 83% | 1021.1 hPa | 0 mm | - | 0 W/m² | - |
* Rain latest hour (hover to see other rain measurements)
** Current wind speed in m/s (hover to see current wind gust speed)